Time,TemperatureF,DewpointF,PressureIn,WindDirection,WindDirectionDegrees,WindSpeedMPH,WindSpeedGustMPH,Humidity,HourlyPrecipIn,Conditions,Clouds,dailyrainin,SolarRadiationWatts/m^2,SoftwareType,DateUTC
2013-01-06 00:00:00,26.1,21.1,30.17,West,280,14.0,19.0,81,0.00,,OVC027,0.00,0.00,VWS V14.01,2013-01-06 06:00:00,
2013-01-06 00:05:00,26.0,21.0,30.17,WNW,286,1.0,16.0,81,0.00,,BKN028,0.00,0.00,VWS V14.01,2013-01-06 06:05:00,
2013-01-06 00:10:00,25.8,21.1,30.17,WSW,248,5.0,17.0,82,0.00,,BKN028,0.00,0.00,VWS V14.01,2013-01-06 06:10:00,
2013-01-06 00:15:00,25.8,21.1,30.17,West,274,11.0,15.0,82,0.00,,BKN028,0.00,0.00,VWS V14.01,2013-01-06 06:15:00,
2013-01-06 00:20:00,25.7,21.0,30.17,West,271,7.0,14.0,82,0.00,,BKN028,0.00,0.00,VWS V14.01,2013-01-06 06:20:00,
2013-01-06 00:25:00,25.6,20.6,30.17,WNW,289,0.0,17.0,81,0.00,,BKN028,0.00,0.00,VWS V14.01,2013-01-06 06:25:00,
2013-01-06 00:30:00,25.5,20.5,30.17,West,259,2.0,15.0,81,0.00,,BKN028,0.00,0.00,VWS V14.01,2013-01-06 06:30:00,
2013-01-06 00:35:00,25.4,20.4,30.18,NW,321,13.0,17.0,81,0.00,,BKN028,0.00,0.00,VWS V14.01,2013-01-06 06:35:00,
2013-01-06 00:40:00,25.4,20.1,30.18,WNW,284,9.0,19.0,80,0.00,,BKN020,0.00,0.00,VWS V14.01,2013-01-06 06:40:00,
2013-01-06 00:45:00,25.3,20.3,30.18,West,267,10.0,17.0,81,0.00,,BKN020,0.00,0.00,VWS V14.01,2013-01-06 06:45:00,
2013-01-06 00:50:00,25.3,20.3,30.18,NNW,327,7.0,19.0,81,0.00,,BKN020,0.00,0.00,VWS V14.01,2013-01-06 06:50:00,
2013-01-06 00:55:00,25.2,19.9,30.18,NW,320,12.0,15.0,80,0.00,,BKN020,0.00,0.00,VWS V14.01,2013-01-06 06:55:00,
2013-01-06 01:00:00,25.0,19.7,30.18,WNW,295,5.0,13.0,80,0.00,,BKN020,0.00,0.00,VWS V14.01,2013-01-06 07:00:00,
2013-01-06 01:05:00,24.8,19.5,30.18,WNW,290,12.0,19.0,80,0.00,,BKN014,0.00,0.00,VWS V14.01,2013-01-06 07:05:00,
2013-01-06 01:10:00,24.7,19.4,30.18,West,280,0.0,9.0,80,0.00,,BKN014,0.00,0.00,VWS V14.01,2013-01-06 07:10:00,
2013-01-06 01:15:00,24.6,19.3,30.18,WNW,289,5.0,16.0,80,0.00,,BKN014,0.00,0.00,VWS V14.01,2013-01-06 07:15:00,
2013-01-06 01:20:00,24.5,19.2,30.18,WNW,290,0.0,12.0,80,0.00,,BKN014,0.00,0.00,VWS V14.01,2013-01-06 07:20:00,
2013-01-06 01:25:00,24.4,19.1,30.18,WNW,284,13.0,15.0,80,0.00,,BKN014,0.00,0.00,VWS V14.01,2013-01-06 07:25:00,
2013-01-06 01:30:00,24.3,19.0,30.18,West,266,10.0,16.0,80,0.00,,BKN014,0.00,0.00,VWS V14.01,2013-01-06 07:30:00,
2013-01-06 01:35:00,24.3,19.0,30.19,WNW,292,0.0,13.0,80,0.00,,BKN014,0.00,0.00,VWS V14.01,2013-01-06 07:35:00,
2013-01-06 01:40:00,24.2,19.2,30.19,North,360,9.0,13.0,81,0.00,,OVC016,0.00,0.00,VWS V14.01,2013-01-06 07:40:00,
2013-01-06 01:45:00,24.2,19.2,30.19,WNW,301,14.0,14.0,81,0.00,,OVC016,0.00,0.00,VWS V14.01,2013-01-06 07:45:00,
2013-01-06 01:50:00,24.0,19.0,30.19,NW,313,6.0,15.0,81,0.00,,OVC016,0.00,0.00,VWS V14.01,2013-01-06 07:50:00,
2013-01-06 01:55:00,23.9,18.9,30.20,West,274,15.0,16.0,81,0.00,,OVC016,0.00,0.00,VWS V14.01,2013-01-06 07:55:00,
2013-01-06 02:00:00,23.8,18.5,30.20,NNW,330,11.0,16.0,80,0.00,,OVC016,0.00,0.00,VWS V14.01,2013-01-06 08:00:00,
2013-01-06 02:05:00,23.7,18.5,30.21,WNW,298,4.0,15.0,80,0.00,,OVC016,0.00,0.00,VWS V14.01,2013-01-06 08:05:00,
2013-01-06 02:10:00,23.5,18.2,30.21,NW,317,4.0,18.0,80,0.00,,OVC016,0.00,0.00,VWS V14.01,2013-01-06 08:10:00,
2013-01-06 02:15:00,23.5,18.2,30.21,NW,326,7.0,19.0,80,0.00,,OVC016,0.00,0.00,VWS V14.01,2013-01-06 08:15:00,
2013-01-06 02:20:00,23.4,18.1,30.21,NW,320,12.0,16.0,80,0.00,,OVC016,0.00,0.00,VWS V14.01,2013-01-06 08:20:00,
2013-01-06 02:25:00,23.3,18.1,30.22,NW,313,1.0,14.0,80,0.00,,OVC016,0.00,0.00,VWS V14.01,2013-01-06 08:25:00,
2013-01-06 02:30:00,23.2,18.0,30.22,West,271,9.0,16.0,80,0.00,,OVC016,0.00,0.00,VWS V14.01,2013-01-06 08:30:00,
2013-01-06 02:35:00,23.1,17.9,30.23,WNW,287,7.0,19.0,80,0.00,,OVC016,0.00,0.00,VWS V14.01,2013-01-06 08:35:00,
2013-01-06 02:40:00,22.9,17.7,30.23,NNW,345,11.0,15.0,80,0.00,,OVC016,0.00,0.00,VWS V14.01,2013-01-06 08:40:00,
2013-01-06 02:46:00,22.7,17.5,30.23,WNW,296,5.0,17.0,80,0.00,,OVC016,0.00,0.00,VWS V14.01,2013-01-06 08:46:00,
2013-01-06 02:51:00,22.6,17.4,30.23,West,276,15.0,18.0,80,0.00,,OVC016,0.00,0.00,VWS V14.01,2013-01-06 08:51:00,
2013-01-06 02:56:00,22.5,17.3,30.23,West,276,0.0,12.0,80,0.00,,OVC016,0.00,0.00,VWS V14.01,2013-01-06 08:56:00,
2013-01-06 03:01:00,22.4,17.5,30.23,West,260,16.0,16.0,81,0.00,,OVC016,0.00,0.00,VWS V14.01,2013-01-06 09:01:00,
2013-01-06 03:06:00,22.4,17.5,30.23,WNW,286,10.0,14.0,81,0.00,,OVC016,0.00,0.00,VWS V14.01,2013-01-06 09:06:00,
2013-01-06 03:11:00,22.3,17.4,30.24,NW,311,7.0,13.0,81,0.00,,OVC016,0.00,0.00,VWS V14.01,2013-01-06 09:11:00,
2013-01-06 03:16:00,22.1,17.2,30.24,NW,315,6.0,19.0,81,0.00,,OVC016,0.00,0.00,VWS V14.01,2013-01-06 09:16:00,
2013-01-06 03:21:00,22.0,17.1,30.25,WNW,300,13.0,20.0,81,0.00,,OVC016,0.00,0.00,VWS V14.01,2013-01-06 09:21:00,
2013-01-06 03:26:00,21.8,16.9,30.25,WNW,301,0.0,17.0,81,0.00,,OVC016,0.00,0.00,VWS V14.01,2013-01-06 09:26:00,
2013-01-06 03:31:00,21.6,16.7,30.25,West,267,6.0,21.0,81,0.00,,OVC016,0.00,0.00,VWS V14.01,2013-01-06 09:31:00,
2013-01-06 03:36:00,21.4,16.5,30.25,WNW,286,11.0,18.0,81,0.00,,OVC016,0.00,0.00,VWS V14.01,2013-01-06 09:36:00,
2013-01-06 03:41:00,21.1,16.2,30.25,NW,309,11.0,15.0,81,0.00,,OVC016,0.00,0.00,VWS V14.01,2013-01-06 09:41:00,
2013-01-06 03:46:00,20.9,16.0,30.26,WNW,289,0.0,0.0,81,0.00,,OVC016,0.00,0.00,VWS V14.01,2013-01-06 09:46:00,
2013-01-06 03:51:00,20.6,15.4,30.25,WNW,295,13.0,18.0,80,0.00,,OVC016,0.00,0.00,VWS V14.01,2013-01-06 09:51:00,
2013-01-06 03:56:00,20.3,15.1,30.26,West,266,5.0,15.0,80,0.00,,OVC016,0.00,0.00,VWS V14.01,2013-01-06 09:56:00,
2013-01-06 04:01:00,20.1,15.2,30.25,West,279,2.0,10.0,81,0.00,,OVC014,0.00,0.00,VWS V14.01,2013-01-06 10:01:00,
2013-01-06 04:06:00,20.0,15.1,30.26,WNW,302,10.0,13.0,81,0.00,,OVC014,0.00,0.00,VWS V14.01,2013-01-06 10:06:00,
2013-01-06 04:11:00,20.0,15.1,30.26,WNW,284,6.0,12.0,81,0.00,,OVC014,0.00,0.00,VWS V14.01,2013-01-06 10:11:00,
2013-01-06 04:16:00,19.9,15.0,30.26,NW,314,9.0,14.0,81,0.00,,OVC014,0.00,0.00,VWS V14.01,2013-01-06 10:16:00,
2013-01-06 04:21:00,19.8,14.9,30.26,West,279,9.0,15.0,81,0.00,,OVC014,0.00,0.00,VWS V14.01,2013-01-06 10:21:00,
2013-01-06 04:26:00,19.7,14.8,30.26,West,272,0.0,13.0,81,0.00,,OVC014,0.00,0.00,VWS V14.01,2013-01-06 10:26:00,
2013-01-06 04:31:00,19.7,14.8,30.26,West,272,0.0,0.0,81,0.00,,OVC014,0.00,0.00,VWS V14.01,2013-01-06 10:31:00,
2013-01-06 04:36:00,19.6,14.7,30.26,West,275,0.0,0.0,81,0.00,,OVC014,0.00,0.00,VWS V14.01,2013-01-06 10:36:00,
2013-01-06 04:41:00,19.4,14.5,30.27,WSW,252,0.0,0.0,81,0.00,,OVC014,0.00,0.00,VWS V14.01,2013-01-06 10:41:00,
2013-01-06 04:46:00,19.3,14.4,30.27,West,262,0.0,9.0,81,0.00,,OVC014,0.00,0.00,VWS V14.01,2013-01-06 10:46:00,
2013-01-06 04:51:00,19.1,14.2,30.27,West,279,0.0,0.0,81,0.00,,OVC014,0.00,0.00,VWS V14.01,2013-01-06 10:51:00,
2013-01-06 04:56:00,19.0,14.1,30.27,West,276,0.0,0.0,81,0.00,,OVC014,0.00,0.00,VWS V14.01,2013-01-06 10:56:00,
2013-01-06 05:01:00,18.8,13.9,30.27,WNW,283,0.0,0.0,81,0.00,,OVC014,0.00,0.00,VWS V14.01,2013-01-06 11:01:00,
2013-01-06 05:06:00,18.7,13.9,30.27,West,280,0.0,0.0,81,0.00,,OVC014,0.00,0.00,VWS V14.01,2013-01-06 11:06:00,
2013-01-06 05:11:00,18.5,13.6,30.27,WNW,286,0.0,0.0,81,0.00,,OVC014,0.00,0.00,VWS V14.01,2013-01-06 11:11:00,
2013-01-06 05:16:00,18.4,13.3,30.27,WNW,288,0.0,0.0,80,0.00,,OVC014,0.00,0.00,VWS V14.01,2013-01-06 11:16:00,
2013-01-06 05:21:00,18.2,13.1,30.27,WNW,297,0.0,0.0,80,0.00,,OVC014,0.00,0.00,VWS V14.01,2013-01-06 11:21:00,
2013-01-06 05:26:00,18.1,13.0,30.27,West,269,0.0,6.0,80,0.00,,OVC014,0.00,0.00,VWS V14.01,2013-01-06 11:26:00,
2013-01-06 05:31:00,18.0,12.9,30.28,WSW,245,0.0,0.0,80,0.00,,OVC014,0.00,0.00,VWS V14.01,2013-01-06 11:31:00,
2013-01-06 05:36:00,17.8,12.7,30.28,WNW,299,0.0,0.0,80,0.00,,OVC014,0.00,0.00,VWS V14.01,2013-01-06 11:36:00,
2013-01-06 05:41:00,17.7,12.6,30.28,West,265,0.0,0.0,80,0.00,,CLR,0.00,0.00,VWS V14.01,2013-01-06 11:41:00,
2013-01-06 05:46:00,17.6,12.5,30.29,West,280,7.0,7.0,80,0.00,,CLR,0.00,0.00,VWS V14.01,2013-01-06 11:46:00,
2013-01-06 05:51:00,17.5,12.4,30.29,WNW,291,0.0,0.0,80,0.00,,CLR,0.00,0.00,VWS V14.01,2013-01-06 11:51:00,
2013-01-06 05:56:00,17.4,12.3,30.29,WNW,295,0.0,11.0,80,0.00,,CLR,0.00,0.00,VWS V14.01,2013-01-06 11:56:00,
2013-01-06 06:01:00,17.2,12.1,30.29,WNW,283,0.0,10.0,80,0.00,,CLR,0.00,0.00,VWS V14.01,2013-01-06 12:01:00,
2013-01-06 06:06:00,17.1,12.0,30.30,West,281,0.0,2.0,80,0.00,,CLR,0.00,0.00,VWS V14.01,2013-01-06 12:06:00,
2013-01-06 06:11:00,17.1,12.0,30.30,WNW,283,0.0,10.0,80,0.00,,CLR,0.00,0.00,VWS V14.01,2013-01-06 12:11:00,
2013-01-06 06:16:00,17.0,11.9,30.30,WSW,258,0.0,9.0,80,0.00,,CLR,0.00,0.00,VWS V14.01,2013-01-06 12:16:00,
2013-01-06 06:21:00,16.9,11.8,30.31,WNW,301,0.0,0.0,80,0.00,,CLR,0.00,0.00,VWS V14.01,2013-01-06 12:21:00,
2013-01-06 06:26:00,16.9,11.8,30.31,West,278,0.0,0.0,80,0.00,,CLR,0.00,0.00,VWS V14.01,2013-01-06 12:26:00,
2013-01-06 06:31:00,16.9,11.8,30.31,NW,304,0.0,0.0,80,0.00,,CLR,0.00,0.00,VWS V14.01,2013-01-06 12:31:00,
2013-01-06 06:36:00,16.8,11.7,30.31,WNW,288,8.0,8.0,80,0.00,,CLR,0.00,0.00,VWS V14.01,2013-01-06 12:36:00,
2013-01-06 06:41:00,16.8,11.7,30.32,WNW,285,0.0,0.0,80,0.00,,CLR,0.00,0.00,VWS V14.01,2013-01-06 12:41:00,
2013-01-06 06:47:00,16.7,11.6,30.32,West,278,10.0,10.0,80,0.00,,CLR,0.00,0.00,VWS V14.01,2013-01-06 12:47:00,
2013-01-06 06:52:00,16.7,11.6,30.32,West,272,0.0,9.0,80,0.00,,CLR,0.00,0.00,VWS V14.01,2013-01-06 12:52:00,
2013-01-06 06:57:00,16.6,11.5,30.32,WNW,282,0.0,0.0,80,0.00,,CLR,0.00,0.00,VWS V14.01,2013-01-06 12:57:00,
2013-01-06 07:02:00,16.6,11.5,30.33,West,274,0.0,10.0,80,0.00,,CLR,0.00,0.00,VWS V14.01,2013-01-06 13:02:00,
2013-01-06 07:07:00,16.5,11.4,30.33,West,280,0.0,1.0,80,0.00,,CLR,0.00,0.00,VWS V14.01,2013-01-06 13:07:00,
2013-01-06 07:12:00,16.4,11.0,30.33,NW,310,0.0,7.0,79,0.00,,CLR,0.00,0.00,VWS V14.01,2013-01-06 13:12:00,
2013-01-06 07:17:00,16.3,10.9,30.34,West,272,0.0,10.0,79,0.00,,CLR,0.00,0.00,VWS V14.01,2013-01-06 13:17:00,
2013-01-06 07:22:00,16.2,10.8,30.34,WNW,298,5.0,10.0,79,0.00,,CLR,0.00,0.00,VWS V14.01,2013-01-06 13:22:00,
2013-01-06 07:27:00,16.2,10.8,30.34,WNW,291,0.0,11.0,79,0.00,,CLR,0.00,0.00,VWS V14.01,2013-01-06 13:27:00,
2013-01-06 07:32:00,16.1,10.8,30.34,West,277,8.0,8.0,79,0.00,,CLR,0.00,0.00,VWS V14.01,2013-01-06 13:32:00,
2013-01-06 07:37:00,16.0,10.6,30.34,WNW,290,3.0,10.0,79,0.00,,CLR,0.00,5.00,VWS V14.01,2013-01-06 13:37:00,
2013-01-06 07:42:00,15.9,10.3,30.34,West,272,0.0,0.0,78,0.00,,CLR,0.00,7.00,VWS V14.01,2013-01-06 13:42:00,
2013-01-06 07:47:00,15.9,10.3,30.34,West,277,7.0,10.0,78,0.00,,CLR,0.00,9.00,VWS V14.01,2013-01-06 13:47:00,
2013-01-06 07:52:00,15.8,10.2,30.34,West,272,0.0,9.0,78,0.00,,CLR,0.00,11.00,VWS V14.01,2013-01-06 13:52:00,
2013-01-06 07:57:00,15.8,10.2,30.34,West,277,0.0,0.0,78,0.00,,CLR,0.00,14.00,VWS V14.01,2013-01-06 13:57:00,
2013-01-06 08:02:00,15.9,10.3,30.34,West,277,0.0,12.0,78,0.00,,CLR,0.00,19.00,VWS V14.01,2013-01-06 14:02:00,
2013-01-06 08:07:00,15.9,10.0,30.34,WNW,282,3.0,10.0,77,0.00,,CLR,0.00,23.00,VWS V14.01,2013-01-06 14:07:00,
2013-01-06 08:12:00,16.0,10.1,30.35,West,275,3.0,14.0,77,0.00,,CLR,0.00,32.00,VWS V14.01,2013-01-06 14:12:00,
2013-01-06 08:17:00,16.1,10.2,30.35,WNW,286,1.0,10.0,77,0.00,,CLR,0.00,37.00,VWS V14.01,2013-01-06 14:17:00,
2013-01-06 08:22:00,16.2,10.0,30.35,West,281,3.0,10.0,76,0.00,,CLR,0.00,30.00,VWS V14.01,2013-01-06 14:22:00,
2013-01-06 08:27:00,16.3,10.1,30.35,WNW,299,0.0,10.0,76,0.00,,CLR,0.00,35.00,VWS V14.01,2013-01-06 14:27:00,
2013-01-06 08:32:00,16.4,10.2,30.36,WNW,291,4.0,10.0,76,0.00,,CLR,0.00,74.00,VWS V14.01,2013-01-06 14:32:00,
2013-01-06 08:37:00,16.7,10.5,30.36,WNW,285,7.0,9.0,76,0.00,,CLR,0.00,88.00,VWS V14.01,2013-01-06 14:37:00,
2013-01-06 08:42:00,16.9,10.4,30.36,West,277,4.0,7.0,75,0.00,,CLR,0.00,105.00,VWS V14.01,2013-01-06 14:42:00,
2013-01-06 08:47:00,17.1,10.3,30.37,West,277,2.0,14.0,74,0.00,,CLR,0.00,137.00,VWS V14.01,2013-01-06 14:47:00,
2013-01-06 08:52:00,17.4,10.6,30.37,West,274,9.0,12.0,74,0.00,,CLR,0.00,213.00,VWS V14.01,2013-01-06 14:52:00,
2013-01-06 08:57:00,17.8,10.9,30.37,WNW,290,0.0,5.0,74,0.00,,CLR,0.00,227.00,VWS V14.01,2013-01-06 14:57:00,
2013-01-06 09:02:00,18.0,10.8,30.38,NNW,327,2.0,12.0,73,0.00,,CLR,0.00,84.00,VWS V14.01,2013-01-06 15:02:00,
2013-01-06 09:07:00,17.7,10.5,30.39,NNW,328,13.0,15.0,73,0.00,,CLR,0.00,116.00,VWS V14.01,2013-01-06 15:07:00,
2013-01-06 09:12:00,17.8,10.6,30.38,NW,305,0.0,8.0,73,0.00,,CLR,0.00,141.00,VWS V14.01,2013-01-06 15:12:00,
2013-01-06 09:17:00,17.9,11.0,30.37,WNW,282,0.0,9.0,74,0.00,,CLR,0.00,153.00,VWS V14.01,2013-01-06 15:17:00,
2013-01-06 09:22:00,18.1,10.9,30.37,WNW,295,10.0,11.0,73,0.00,,CLR,0.00,127.00,VWS V14.01,2013-01-06 15:22:00,
2013-01-06 09:27:00,18.0,10.8,30.38,WNW,294,10.0,10.0,73,0.00,,CLR,0.00,47.00,VWS V14.01,2013-01-06 15:27:00,
2013-01-06 09:32:00,18.2,11.3,30.39,WNW,295,2.0,8.0,74,0.00,,CLR,0.00,234.00,VWS V14.01,2013-01-06 15:32:00,
2013-01-06 09:37:00,18.5,11.3,30.39,WNW,288,10.0,10.0,73,0.00,,CLR,0.00,237.00,VWS V14.01,2013-01-06 15:37:00,
2013-01-06 09:42:00,18.8,11.6,30.39,NNW,328,7.0,11.0,73,0.00,,CLR,0.00,281.00,VWS V14.01,2013-01-06 15:42:00,
2013-01-06 09:47:00,19.0,11.5,30.39,WNW,286,1.0,11.0,72,0.00,,CLR,0.00,297.00,VWS V14.01,2013-01-06 15:47:00,
2013-01-06 09:52:00,19.2,12.0,30.39,NW,326,4.0,12.0,73,0.00,,CLR,0.00,309.00,VWS V14.01,2013-01-06 15:52:00,
2013-01-06 09:57:00,19.3,11.8,30.39,WNW,292,6.0,13.0,72,0.00,,CLR,0.00,323.00,VWS V14.01,2013-01-06 15:57:00,
2013-01-06 10:02:00,19.7,12.1,30.40,West,268,3.0,9.0,72,0.00,,CLR,0.00,338.00,VWS V14.01,2013-01-06 16:02:00,
2013-01-06 10:07:00,19.9,12.3,30.40,NW,316,0.0,7.0,72,0.00,,CLR,0.00,350.00,VWS V14.01,2013-01-06 16:07:00,
2013-01-06 10:12:00,20.1,12.5,30.40,West,280,10.0,11.0,72,0.00,,CLR,0.00,364.00,VWS V14.01,2013-01-06 16:12:00,
2013-01-06 10:18:00,20.4,13.1,30.40,West,272,0.0,7.0,73,0.00,,CLR,0.00,374.00,VWS V14.01,2013-01-06 16:18:00,
2013-01-06 10:23:00,20.5,12.6,30.40,West,277,3.0,9.0,71,0.00,,CLR,0.00,376.00,VWS V14.01,2013-01-06 16:23:00,
2013-01-06 10:28:00,20.8,12.9,30.40,WNW,286,2.0,7.0,71,0.00,,CLR,0.00,378.00,VWS V14.01,2013-01-06 16:28:00,
2013-01-06 10:33:00,20.9,13.0,30.40,West,280,6.0,10.0,71,0.00,,CLR,0.00,376.00,VWS V14.01,2013-01-06 16:33:00,
2013-01-06 10:38:00,21.3,13.4,30.40,West,275,4.0,7.0,71,0.00,,CLR,0.00,373.00,VWS V14.01,2013-01-06 16:38:00,
2013-01-06 10:43:00,21.5,13.6,30.40,West,276,9.0,11.0,71,0.00,,CLR,0.00,371.00,VWS V14.01,2013-01-06 16:43:00,
2013-01-06 10:48:00,21.6,13.3,30.40,West,266,0.0,10.0,70,0.00,,CLR,0.00,369.00,VWS V14.01,2013-01-06 16:48:00,
2013-01-06 10:53:00,22.1,13.5,30.40,WNW,284,3.0,11.0,69,0.00,,CLR,0.00,367.00,VWS V14.01,2013-01-06 16:53:00,
2013-01-06 10:58:00,22.2,13.6,30.40,West,266,6.0,9.0,69,0.00,,CLR,0.00,367.00,VWS V14.01,2013-01-06 16:58:00,
2013-01-06 11:03:00,22.8,14.2,30.40,West,279,0.0,0.0,69,0.00,,CLR,0.00,369.00,VWS V14.01,2013-01-06 17:03:00,
2013-01-06 11:08:00,23.4,14.8,30.40,West,279,2.0,9.0,69,0.00,,CLR,0.00,371.00,VWS V14.01,2013-01-06 17:08:00,
2013-01-06 11:13:00,23.4,14.8,30.40,WNW,294,4.0,8.0,69,0.00,,CLR,0.00,376.00,VWS V14.01,2013-01-06 17:13:00,
2013-01-06 11:18:00,23.3,15.0,30.40,NW,326,2.0,9.0,70,0.00,,CLR,0.00,380.00,VWS V14.01,2013-01-06 17:18:00,
2013-01-06 11:23:00,23.3,14.0,30.40,West,259,4.0,11.0,67,0.00,,CLR,0.00,388.00,VWS V14.01,2013-01-06 17:23:00,
2013-01-06 11:28:00,23.6,14.6,30.40,WNW,287,4.0,12.0,68,0.00,,CLR,0.00,396.00,VWS V14.01,2013-01-06 17:28:00,
2013-01-06 11:33:00,23.9,14.2,30.40,WNW,296,3.0,6.0,66,0.00,,CLR,0.00,406.00,VWS V14.01,2013-01-06 17:33:00,
2013-01-06 11:38:00,24.1,14.4,30.40,WNW,289,4.0,7.0,66,0.00,,CLR,0.00,417.00,VWS V14.01,2013-01-06 17:38:00,
2013-01-06 11:43:00,24.4,14.7,30.41,WSW,251,0.0,10.0,66,0.00,,CLR,0.00,427.00,VWS V14.01,2013-01-06 17:43:00,
2013-01-06 11:48:00,24.7,15.0,30.40,West,271,0.0,5.0,66,0.00,,CLR,0.00,438.00,VWS V14.01,2013-01-06 17:48:00,
2013-01-06 11:53:00,24.6,14.9,30.40,NW,310,0.0,11.0,66,0.00,,CLR,0.00,446.00,VWS V14.01,2013-01-06 17:53:00,
2013-01-06 11:58:00,25.1,15.4,30.40,West,262,0.0,0.0,66,0.00,,CLR,0.00,450.00,VWS V14.01,2013-01-06 17:58:00,
2013-01-06 12:03:00,25.4,15.6,30.40,West,274,0.0,0.0,66,0.00,,CLR,0.00,452.00,VWS V14.01,2013-01-06 18:03:00,
2013-01-06 12:08:00,25.8,15.7,30.40,WNW,296,0.0,0.0,65,0.00,,CLR,0.00,450.00,VWS V14.01,2013-01-06 18:08:00,
2013-01-06 12:13:00,25.6,14.8,30.40,NW,307,0.0,0.0,63,0.00,,CLR,0.00,429.00,VWS V14.01,2013-01-06 18:13:00,
2013-01-06 12:18:00,25.9,15.1,30.40,WNW,288,0.0,0.0,63,0.00,,CLR,0.00,403.00,VWS V14.01,2013-01-06 18:18:00,
2013-01-06 12:23:00,26.1,15.6,30.39,WNW,301,0.0,3.0,64,0.00,,CLR,0.00,392.00,VWS V14.01,2013-01-06 18:23:00,
2013-01-06 12:28:00,26.0,14.8,30.39,WNW,286,0.0,4.0,62,0.00,,CLR,0.00,362.00,VWS V14.01,2013-01-06 18:28:00,
2013-01-06 12:33:00,26.2,15.3,30.39,West,264,9.0,9.0,63,0.00,,CLR,0.00,313.00,VWS V14.01,2013-01-06 18:33:00,
2013-01-06 12:38:00,26.1,15.6,30.39,West,278,0.0,5.0,64,0.00,,CLR,0.00,288.00,VWS V14.01,2013-01-06 18:38:00,
2013-01-06 12:43:00,26.3,15.8,30.39,NW,321,0.0,0.0,64,0.00,,CLR,0.00,257.00,VWS V14.01,2013-01-06 18:43:00,
2013-01-06 12:48:00,26.6,16.4,30.39,WNW,293,0.0,9.0,65,0.00,,CLR,0.00,253.00,VWS V14.01,2013-01-06 18:48:00,
2013-01-06 12:53:00,26.5,16.3,30.38,WNW,289,0.0,0.0,65,0.00,,CLR,0.00,236.00,VWS V14.01,2013-01-06 18:53:00,
2013-01-06 12:58:00,26.7,16.9,30.38,NW,324,0.0,0.0,66,0.00,,CLR,0.00,255.00,VWS V14.01,2013-01-06 18:58:00,
2013-01-06 13:03:00,27.2,17.4,30.38,NW,304,0.0,4.0,66,0.00,,CLR,0.00,327.00,VWS V14.01,2013-01-06 19:03:00,
2013-01-06 13:08:00,27.3,17.5,30.38,WNW,299,0.0,0.0,66,0.00,,CLR,0.00,364.00,VWS V14.01,2013-01-06 19:08:00,
2013-01-06 13:13:00,27.5,17.6,30.38,WNW,288,0.0,0.0,66,0.00,,CLR,0.00,404.00,VWS V14.01,2013-01-06 19:13:00,
2013-01-06 13:18:00,27.4,16.8,30.38,WNW,296,0.0,4.0,64,0.00,,CLR,0.00,439.00,VWS V14.01,2013-01-06 19:18:00,
2013-01-06 13:23:00,27.3,17.5,30.38,West,273,0.0,4.0,66,0.00,,CLR,0.00,459.00,VWS V14.01,2013-01-06 19:23:00,
2013-01-06 13:28:00,27.6,18.1,30.38,WNW,301,0.0,1.0,67,0.00,,CLR,0.00,461.00,VWS V14.01,2013-01-06 19:28:00,
2013-01-06 13:33:00,27.5,17.3,30.38,West,271,0.0,0.0,65,0.00,,CLR,0.00,455.00,VWS V14.01,2013-01-06 19:33:00,
2013-01-06 13:38:00,27.7,17.8,30.38,NW,304,0.0,0.0,66,0.00,,CLR,0.00,448.00,VWS V14.01,2013-01-06 19:38:00,
2013-01-06 13:48:00,28.0,17.8,30.39,West,272,0.0,4.0,65,0.00,,CLR,0.00,436.00,VWS V14.01,2013-01-06 19:48:00,
2013-01-06 13:54:00,27.7,17.8,30.39,West,278,1.0,6.0,66,0.00,,CLR,0.00,431.00,VWS V14.01,2013-01-06 19:54:00,
2013-01-06 13:59:00,28.0,17.8,30.39,West,272,0.0,5.0,65,0.00,,CLR,0.00,420.00,VWS V14.01,2013-01-06 19:59:00,
2013-01-06 14:04:00,28.4,18.9,30.38,West,280,0.0,0.0,67,0.00,,CLR,0.00,411.00,VWS V14.01,2013-01-06 20:04:00,
2013-01-06 14:09:00,28.6,18.0,30.39,West,260,2.0,6.0,64,0.00,,CLR,0.00,403.00,VWS V14.01,2013-01-06 20:09:00,
2013-01-06 14:11:00,28.5,17.9,30.39,WSW,246,0.0,2.0,64,0.00,,CLR,0.00,399.00,VWS V14.01,2013-01-06 20:11:00,
2013-01-06 14:13:00,28.3,18.4,30.39,West,259,0.0,0.0,66,0.00,,CLR,0.00,396.00,VWS V14.01,2013-01-06 20:13:00,
2013-01-06 14:18:00,28.3,18.1,30.39,WSW,254,4.0,7.0,65,0.00,,CLR,0.00,388.00,VWS V14.01,2013-01-06 20:18:00,
2013-01-06 14:23:00,27.8,19.0,30.39,WSW,248,6.0,8.0,69,0.00,,CLR,0.00,380.00,VWS V14.01,2013-01-06 20:23:00,
2013-01-06 14:28:00,27.6,18.8,30.39,WSW,241,9.0,11.0,69,0.00,,CLR,0.00,369.00,VWS V14.01,2013-01-06 20:28:00,
2013-01-06 14:33:00,27.5,18.3,30.38,WSW,242,1.0,4.0,68,0.00,,CLR,0.00,359.00,VWS V14.01,2013-01-06 20:33:00,
2013-01-06 14:38:00,27.5,18.3,30.39,SW,227,0.0,3.0,68,0.00,,CLR,0.00,348.00,VWS V14.01,2013-01-06 20:38:00,
2013-01-06 14:43:00,27.5,18.3,30.38,SW,230,2.0,3.0,68,0.00,,CLR,0.00,338.00,VWS V14.01,2013-01-06 20:43:00,
2013-01-06 14:48:00,27.7,18.9,30.38,WSW,254,0.0,3.0,69,0.00,,CLR,0.00,327.00,VWS V14.01,2013-01-06 20:48:00,
2013-01-06 14:54:00,27.6,19.1,30.38,WSW,247,3.0,4.0,70,0.00,,CLR,0.00,315.00,VWS V14.01,2013-01-06 20:54:00,
2013-01-06 14:59:00,27.8,19.3,30.39,West,267,2.0,2.0,70,0.00,,CLR,0.00,301.00,VWS V14.01,2013-01-06 20:59:00,
2013-01-06 15:00:00,28.0,18.8,30.39,WSW,248,2.0,3.0,68,0.00,,CLR,0.00,299.00,VWS V14.01,2013-01-06 21:00:00,
2013-01-06 15:05:00,28.4,19.2,30.39,WSW,252,0.0,4.0,68,0.00,,CLR,0.00,283.00,VWS V14.01,2013-01-06 21:05:00,
2013-01-06 15:10:00,28.2,19.0,30.39,WSW,243,5.0,6.0,68,0.00,,CLR,0.00,269.00,VWS V14.01,2013-01-06 21:10:00,
2013-01-06 15:15:00,27.8,19.0,30.39,WSW,239,3.0,5.0,69,0.00,,CLR,0.00,253.00,VWS V14.01,2013-01-06 21:15:00,
2013-01-06 15:20:00,27.8,19.0,30.39,WSW,256,0.0,7.0,69,0.00,,CLR,0.00,236.00,VWS V14.01,2013-01-06 21:20:00,
2013-01-06 15:25:00,28.1,18.9,30.39,WSW,253,0.0,3.0,68,0.00,,CLR,0.00,218.00,VWS V14.01,2013-01-06 21:25:00,
2013-01-06 15:30:00,28.4,19.2,30.40,WSW,239,4.0,5.0,68,0.00,,CLR,0.00,202.00,VWS V14.01,2013-01-06 21:30:00,
2013-01-06 15:35:00,28.3,19.1,30.40,West,260,4.0,4.0,68,0.00,,CLR,0.00,185.00,VWS V14.01,2013-01-06 21:35:00,
2013-01-06 15:40:00,28.4,19.2,30.40,WSW,254,3.0,5.0,68,0.00,,CLR,0.00,167.00,VWS V14.01,2013-01-06 21:40:00,
2013-01-06 15:45:00,28.3,19.8,30.40,West,266,0.0,3.0,70,0.00,,CLR,0.00,149.00,VWS V14.01,2013-01-06 21:45:00,
2013-01-06 15:50:00,28.0,19.5,30.40,WSW,252,4.0,5.0,70,0.00,,CLR,0.00,137.00,VWS V14.01,2013-01-06 21:50:00,
2013-01-06 15:55:00,28.0,19.5,30.40,WSW,256,3.0,6.0,70,0.00,,CLR,0.00,120.00,VWS V14.01,2013-01-06 21:55:00,
2013-01-06 16:00:00,28.0,19.8,30.40,WSW,256,0.0,0.0,71,0.00,,CLR,0.00,104.00,VWS V14.01,2013-01-06 22:00:00,
2013-01-06 16:05:00,28.2,19.7,30.40,WSW,253,0.0,0.0,70,0.00,,CLR,0.00,88.00,VWS V14.01,2013-01-06 22:05:00,
2013-01-06 16:10:00,28.1,19.3,30.40,WSW,253,2.0,5.0,69,0.00,,CLR,0.00,74.00,VWS V14.01,2013-01-06 22:10:00,
2013-01-06 16:16:00,27.8,19.6,30.40,WSW,249,0.0,0.0,71,0.00,,CLR,0.00,60.00,VWS V14.01,2013-01-06 22:16:00,
2013-01-06 16:21:00,27.9,19.4,30.40,West,260,0.0,4.0,70,0.00,,CLR,0.00,47.00,VWS V14.01,2013-01-06 22:21:00,
2013-01-06 16:26:00,28.0,19.5,30.40,WSW,256,0.0,5.0,70,0.00,,CLR,0.00,37.00,VWS V14.01,2013-01-06 22:26:00,
2013-01-06 16:31:00,27.8,19.6,30.40,WSW,252,0.0,0.0,71,0.00,,CLR,0.00,26.00,VWS V14.01,2013-01-06 22:31:00,
2013-01-06 16:36:00,27.6,19.4,30.39,WSW,252,0.0,0.0,71,0.00,,CLR,0.00,19.00,VWS V14.01,2013-01-06 22:36:00,
2013-01-06 16:41:00,27.5,19.4,30.39,WSW,253,0.0,0.0,71,0.00,,CLR,0.00,14.00,VWS V14.01,2013-01-06 22:41:00,
2013-01-06 16:46:00,27.3,19.1,30.40,WSW,253,0.0,0.0,71,0.00,,CLR,0.00,12.00,VWS V14.01,2013-01-06 22:46:00,
2013-01-06 16:51:00,27.1,19.0,30.40,WSW,253,0.0,0.0,71,0.00,,CLR,0.00,9.00,VWS V14.01,2013-01-06 22:51:00,
2013-01-06 16:56:00,26.7,18.6,30.39,WSW,253,0.0,0.0,71,0.00,,CLR,0.00,7.00,VWS V14.01,2013-01-06 22:56:00,
2013-01-06 17:01:00,26.4,18.6,30.40,WSW,253,0.0,0.0,72,0.00,,CLR,0.00,5.00,VWS V14.01,2013-01-06 23:01:00,
2013-01-06 17:06:00,26.3,18.5,30.40,WSW,253,0.0,0.0,72,0.00,,CLR,0.00,0.00,VWS V14.01,2013-01-06 23:06:00,
2013-01-06 17:11:00,26.2,18.4,30.40,WSW,253,0.0,0.0,72,0.00,,CLR,0.00,0.00,VWS V14.01,2013-01-06 23:11:00,
2013-01-06 17:16:00,25.6,18.2,30.40,WSW,253,0.0,0.0,73,0.00,,CLR,0.00,0.00,VWS V14.01,2013-01-06 23:16:00,
2013-01-06 17:21:00,25.0,17.6,30.40,WSW,253,0.0,0.0,73,0.00,,CLR,0.00,0.00,VWS V14.01,2013-01-06 23:21:00,
2013-01-06 17:26:00,24.9,18.1,30.39,WSW,253,0.0,0.0,75,0.00,,CLR,0.00,0.00,VWS V14.01,2013-01-06 23:26:00,
2013-01-06 17:31:00,25.0,18.2,30.39,WSW,253,0.0,0.0,75,0.00,,CLR,0.00,0.00,VWS V14.01,2013-01-06 23:31:00,
2013-01-06 17:36:00,25.0,18.2,30.39,WSW,253,0.0,0.0,75,0.00,,CLR,0.00,0.00,VWS V14.01,2013-01-06 23:36:00,
2013-01-06 17:41:00,25.1,18.3,30.39,WSW,253,0.0,0.0,75,0.00,,CLR,0.00,0.00,VWS V14.01,2013-01-06 23:41:00,
2013-01-06 17:46:00,24.9,18.1,30.39,WSW,253,0.0,0.0,75,0.00,,CLR,0.00,0.00,VWS V14.01,2013-01-06 23:46:00,
2013-01-06 17:51:00,24.7,17.9,30.39,WSW,253,0.0,0.0,75,0.00,,CLR,0.00,0.00,VWS V14.01,2013-01-06 23:51:00,
2013-01-06 17:56:00,23.8,17.4,30.39,WSW,253,0.0,0.0,76,0.00,,CLR,0.00,0.00,VWS V14.01,2013-01-06 23:56:00,
2013-01-06 18:01:00,23.4,17.3,30.39,WSW,253,0.0,0.0,77,0.00,,CLR,0.00,0.00,VWS V14.01,2013-01-07 00:01:00,
2013-01-06 18:06:00,23.2,17.4,30.39,WSW,253,0.0,0.0,78,0.00,,CLR,0.00,0.00,VWS V14.01,2013-01-07 00:06:00,
2013-01-06 18:11:00,22.7,16.9,30.39,WSW,253,0.0,0.0,78,0.00,,CLR,0.00,0.00,VWS V14.01,2013-01-07 00:11:00,
2013-01-06 18:16:00,22.8,17.3,30.39,WSW,253,0.0,0.0,79,0.00,,CLR,0.00,0.00,VWS V14.01,2013-01-07 00:16:00,
2013-01-06 18:21:00,22.8,17.0,30.39,WSW,253,0.0,0.0,78,0.00,,CLR,0.00,0.00,VWS V14.01,2013-01-07 00:21:00,
2013-01-06 18:26:00,22.5,16.7,30.39,WSW,253,0.0,0.0,78,0.00,,CLR,0.00,0.00,VWS V14.01,2013-01-07 00:26:00,
2013-01-06 18:31:00,22.2,16.7,30.39,WSW,253,0.0,0.0,79,0.00,,CLR,0.00,0.00,VWS V14.01,2013-01-07 00:31:00,
2013-01-06 18:36:00,21.7,16.2,30.39,WSW,253,0.0,0.0,79,0.00,,CLR,0.00,0.00,VWS V14.01,2013-01-07 00:36:00,
2013-01-06 18:41:00,21.6,16.4,30.39,WSW,253,0.0,0.0,80,0.00,,CLR,0.00,0.00,VWS V14.01,2013-01-07 00:41:00,
2013-01-06 18:46:00,21.7,16.8,30.39,WSW,253,0.0,0.0,81,0.00,,CLR,0.00,0.00,VWS V14.01,2013-01-07 00:46:00,
2013-01-06 18:52:00,21.7,16.5,30.39,WSW,253,0.0,0.0,80,0.00,,CLR,0.00,0.00,VWS V14.01,2013-01-07 00:52:00,
2013-01-06 18:57:00,21.7,16.8,30.39,WSW,253,0.0,0.0,81,0.00,,CLR,0.00,0.00,VWS V14.01,2013-01-07 00:57:00,
2013-01-06 19:02:00,21.6,16.7,30.39,WSW,253,0.0,0.0,81,0.00,,CLR,0.00,0.00,VWS V14.01,2013-01-07 01:02:00,
2013-01-06 19:07:00,21.5,16.6,30.39,WSW,253,0.0,0.0,81,0.00,,CLR,0.00,0.00,VWS V14.01,2013-01-07 01:07:00,
2013-01-06 19:12:00,21.3,16.4,30.39,WSW,253,0.0,0.0,81,0.00,,CLR,0.00,0.00,VWS V14.01,2013-01-07 01:12:00,
2013-01-06 19:17:00,21.0,16.1,30.39,WSW,253,0.0,0.0,81,0.00,,CLR,0.00,0.00,VWS V14.01,2013-01-07 01:17:00,
2013-01-06 19:22:00,20.1,15.2,30.39,WSW,253,0.0,0.0,81,0.00,,CLR,0.00,0.00,VWS V14.01,2013-01-07 01:22:00,
2013-01-06 19:27:00,20.1,15.5,30.38,WSW,253,0.0,0.0,82,0.00,,CLR,0.00,0.00,VWS V14.01,2013-01-07 01:27:00,
2013-01-06 19:32:00,20.0,15.7,30.38,WSW,253,0.0,0.0,83,0.00,,CLR,0.00,0.00,VWS V14.01,2013-01-07 01:32:00,
2013-01-06 19:37:00,20.2,15.9,30.38,WSW,253,0.0,0.0,83,0.00,,CLR,0.00,0.00,VWS V14.01,2013-01-07 01:37:00,
2013-01-06 19:42:00,20.3,16.2,30.38,WSW,253,0.0,0.0,84,0.00,,CLR,0.00,0.00,VWS V14.01,2013-01-07 01:42:00,
2013-01-06 19:47:00,20.2,15.9,30.38,WSW,253,0.0,0.0,83,0.00,,CLR,0.00,0.00,VWS V14.01,2013-01-07 01:47:00,
2013-01-06 19:52:00,20.3,16.2,30.38,WSW,253,0.0,0.0,84,0.00,,CLR,0.00,0.00,VWS V14.01,2013-01-07 01:52:00,
2013-01-06 19:57:00,20.3,16.2,30.39,WSW,253,0.0,0.0,84,0.00,,CLR,0.00,0.00,VWS V14.01,2013-01-07 01:57:00,
2013-01-06 20:02:00,20.5,16.7,30.38,WSW,253,0.0,0.0,85,0.00,,CLR,0.00,0.00,VWS V14.01,2013-01-07 02:02:00,
2013-01-06 20:07:00,20.2,16.4,30.39,WSW,253,0.0,0.0,85,0.00,,CLR,0.00,0.00,VWS V14.01,2013-01-07 02:07:00,
2013-01-06 20:12:00,20.1,18.1,30.39,WSW,253,0.0,0.0,92,0.00,,CLR,0.00,0.00,VWS V14.01,2013-01-07 02:12:00,
2013-01-06 20:17:00,20.1,16.3,30.38,WSW,253,0.0,0.0,85,0.00,,CLR,0.00,0.00,VWS V14.01,2013-01-07 02:17:00,
2013-01-06 20:22:00,20.1,16.0,30.38,WSW,253,0.0,0.0,84,0.00,,CLR,0.00,0.00,VWS V14.01,2013-01-07 02:22:00,
2013-01-06 20:27:00,20.2,16.4,30.38,WSW,253,0.0,0.0,85,0.00,,CLR,0.00,0.00,VWS V14.01,2013-01-07 02:27:00,
2013-01-06 20:32:00,20.3,16.5,30.38,WSW,253,0.0,0.0,85,0.00,,CLR,0.00,0.00,VWS V14.01,2013-01-07 02:32:00,
2013-01-06 20:37:00,20.0,16.2,30.38,WSW,253,0.0,0.0,85,0.00,,CLR,0.00,0.00,VWS V14.01,2013-01-07 02:37:00,
2013-01-06 20:42:00,20.0,16.2,30.38,SSW,210,0.0,0.0,85,0.00,,CLR,0.00,0.00,VWS V14.01,2013-01-07 02:42:00,
2013-01-06 20:47:00,19.9,16.1,30.38,SSW,209,0.0,0.0,85,0.00,,CLR,0.00,0.00,VWS V14.01,2013-01-07 02:47:00,
2013-01-06 20:52:00,19.8,16.0,30.38,SSW,209,0.0,0.0,85,0.00,,CLR,0.00,0.00,VWS V14.01,2013-01-07 02:52:00,
2013-01-06 20:57:00,19.7,15.9,30.38,SSW,209,0.0,0.0,85,0.00,,CLR,0.00,0.00,VWS V14.01,2013-01-07 02:57:00,
2013-01-06 21:02:00,19.7,16.2,30.38,SSW,209,0.0,0.0,86,0.00,,CLR,0.00,0.00,VWS V14.01,2013-01-07 03:02:00,
2013-01-06 21:07:00,19.9,16.4,30.38,SSW,209,0.0,0.0,86,0.00,,CLR,0.00,0.00,VWS V14.01,2013-01-07 03:07:00,
2013-01-06 21:12:00,20.0,16.5,30.37,South,173,0.0,0.0,86,0.00,,CLR,0.00,0.00,VWS V14.01,2013-01-07 03:12:00,
2013-01-06 21:17:00,19.8,16.0,30.37,South,178,0.0,0.0,85,0.00,,CLR,0.00,0.00,VWS V14.01,2013-01-07 03:17:00,
2013-01-06 21:22:00,19.7,15.9,30.36,South,178,3.0,5.0,85,0.00,,CLR,0.00,0.00,VWS V14.01,2013-01-07 03:22:00,
2013-01-06 21:27:00,19.7,16.2,30.36,South,179,0.0,0.0,86,0.00,,CLR,0.00,0.00,VWS V14.01,2013-01-07 03:27:00,
2013-01-06 21:32:00,19.9,16.4,30.36,South,170,0.0,0.0,86,0.00,,CLR,0.00,0.00,VWS V14.01,2013-01-07 03:32:00,
2013-01-06 21:37:00,20.4,16.9,30.36,South,171,0.0,0.0,86,0.00,,CLR,0.00,0.00,VWS V14.01,2013-01-07 03:37:00,
2013-01-06 21:42:00,20.9,17.4,30.36,South,176,0.0,0.0,86,0.00,,CLR,0.00,0.00,VWS V14.01,2013-01-07 03:42:00,
2013-01-06 21:47:00,21.4,17.9,30.36,South,186,0.0,0.0,86,0.00,,CLR,0.00,0.00,VWS V14.01,2013-01-07 03:47:00,
2013-01-06 21:52:00,21.8,18.0,30.35,South,171,0.0,0.0,85,0.00,,CLR,0.00,0.00,VWS V14.01,2013-01-07 03:52:00,
2013-01-06 21:57:00,22.1,18.0,30.35,South,180,2.0,4.0,84,0.00,,CLR,0.00,0.00,VWS V14.01,2013-01-07 03:57:00,
2013-01-06 22:02:00,22.3,18.2,30.35,South,169,0.0,0.0,84,0.00,,CLR,0.00,0.00,VWS V14.01,2013-01-07 04:02:00,
2013-01-06 22:07:00,22.4,18.0,30.35,South,180,4.0,5.0,83,0.00,,CLR,0.00,0.00,VWS V14.01,2013-01-07 04:07:00,
2013-01-06 22:12:00,22.7,18.0,30.35,South,185,4.0,6.0,82,0.00,,CLR,0.00,0.00,VWS V14.01,2013-01-07 04:12:00,
2013-01-06 22:17:00,22.9,18.0,30.35,SSE,168,2.0,4.0,81,0.00,,CLR,0.00,0.00,VWS V14.01,2013-01-07 04:17:00,
2013-01-06 22:22:00,23.1,18.1,30.35,South,181,4.0,5.0,81,0.00,,CLR,0.00,0.00,VWS V14.01,2013-01-07 04:22:00,
2013-01-06 22:27:00,23.1,17.9,30.35,South,183,4.0,6.0,80,0.00,,CLR,0.00,0.00,VWS V14.01,2013-01-07 04:27:00,
2013-01-06 22:32:00,23.1,17.9,30.35,South,181,5.0,7.0,80,0.00,,CLR,0.00,0.00,VWS V14.01,2013-01-07 04:32:00,
2013-01-06 22:37:00,23.1,17.9,30.35,South,191,4.0,7.0,80,0.00,,CLR,0.00,0.00,VWS V14.01,2013-01-07 04:37:00,
2013-01-06 22:42:00,23.0,17.5,30.35,South,181,7.0,8.0,79,0.00,,CLR,0.00,0.00,VWS V14.01,2013-01-07 04:42:00,
2013-01-06 22:47:00,23.1,17.9,30.35,South,176,4.0,7.0,80,0.00,,CLR,0.00,0.00,VWS V14.01,2013-01-07 04:47:00,
2013-01-06 22:52:00,23.2,18.0,30.34,South,182,4.0,8.0,80,0.00,,CLR,0.00,0.00,VWS V14.01,2013-01-07 04:52:00,
2013-01-06 22:57:00,23.5,18.2,30.34,South,183,4.0,11.0,80,0.00,,CLR,0.00,0.00,VWS V14.01,2013-01-07 04:57:00,
2013-01-06 23:00:00,23.7,18.5,30.34,South,183,6.0,7.0,80,0.00,,CLR,0.00,0.00,VWS V14.01,2013-01-07 05:00:00,
2013-01-06 23:01:00,23.8,18.5,30.34,South,189,3.0,7.0,80,0.00,,CLR,0.00,0.00,VWS V14.01,2013-01-07 05:01:00,
2013-01-06 23:06:00,24.0,18.7,30.34,South,182,6.0,12.0,80,0.00,,CLR,0.00,0.00,VWS V14.01,2013-01-07 05:06:00,
2013-01-06 23:11:00,24.1,18.5,30.34,South,184,6.0,7.0,79,0.00,,CLR,0.00,0.00,VWS V14.01,2013-01-07 05:11:00,
2013-01-06 23:16:00,24.1,18.5,30.34,South,172,5.0,10.0,79,0.00,,CLR,0.00,0.00,VWS V14.01,2013-01-07 05:16:00,
2013-01-06 23:21:00,24.2,18.6,30.34,South,182,5.0,8.0,79,0.00,,CLR,0.00,0.00,VWS V14.01,2013-01-07 05:21:00,
2013-01-06 23:26:00,24.2,18.6,30.34,SSE,164,6.0,9.0,79,0.00,,CLR,0.00,0.00,VWS V14.01,2013-01-07 05:26:00,
2013-01-06 23:31:00,24.2,18.6,30.34,South,189,5.0,7.0,79,0.00,,CLR,0.00,0.00,VWS V14.01,2013-01-07 05:31:00,
2013-01-06 23:36:00,24.3,18.7,30.34,South,187,4.0,7.0,79,0.00,,CLR,0.00,0.00,VWS V14.01,2013-01-07 05:36:00,
2013-01-06 23:41:00,24.3,18.7,30.34,South,174,3.0,5.0,79,0.00,,CLR,0.00,0.00,VWS V14.01,2013-01-07 05:41:00,
2013-01-06 23:46:00,24.3,18.7,30.34,SSE,160,4.0,7.0,79,0.00,,CLR,0.00,0.00,VWS V14.01,2013-01-07 05:46:00,
2013-01-06 23:51:00,24.3,18.7,30.34,SSE,164,4.0,5.0,79,0.00,,CLR,0.00,0.00,VWS V14.01,2013-01-07 05:51:00,
2013-01-06 23:56:00,24.2,18.6,30.34,SSE,164,3.0,4.0,79,0.00,,CLR,0.00,0.00,VWS V14.01,2013-01-07 05:56:00,